Weather in Urakawa

Japan     42°10′40″N   142°45′07″E
temp.,
°C
wind,
m/s
gust,
m/s
humid.,
%
clouds,
%
prec.,
mm/h
press.,
hPa
HPBL,
m
12 may, wed
wed1200:00+6wsw119289 0.1 1019142
03:00+5w119384 0.1 102172
06:00+7ssw118470 0.0 1022234
09:00+9ssw226991 0.0 1023995
12:00+10s436748 0.0 1023782
15:00+8sse447028 0.0 1023632
18:00+6ese23806 0.0 1024103
21:00+4ene22865 0.0 102427
13 may, thu
thu1300:00+5ne2389100 0.0 102369
03:00+8ene2386100 0.0 102299
06:00+10e3787100 0.0 1021406
09:00+11se4890100 0.2 1019535
12:00+13se2279100 0.1 1017512
15:00+14ssw2269100 0.1 1016485
18:00+10s1189100 0.0 101630
21:00+10ne1184100 0.1 101612
14 may, fri
fri1400:00+10nne2277100 0.0 101619
03:00+9n2275100 0.0 101416
06:00+11nnw1173100 0.0 101450
09:00+13sw1171100 0.0 1015347
12:00+16sw346234 0.0 1014820
15:00+17wsw45561 0.0 1012704
18:00+12sw11841 0.0 101317
21:00+10nne11874 0.0 101513
15 may, sat
sat1500:00+9nne11764 0.0 101613
03:00+9nne226097 0.0 101615
06:00+13ne1157100 0.0 101747
09:00+16ssw325399 0.0 1017429
12:00+18ssw224990 0.0 1016661
15:00+17s2254100 0.0 1015428
18:00+13se1174100 0.0 101518
21:00+11ene2372100 0.0 101638
16 may, sun
sun1600:00+11ene3475100 0.0 101380
03:00+10ene2387100 0.0 101157
06:00+14ese117696 0.0 101092
09:00+18ssw2461100 0.0 1008511
12:00+15sse1276100 0.1 1006137
15:00+13sse1195100 1.4 100476
18:00+13wnw0099100 4.3 100324
21:00+13wsw1110098 5.8 100226